[[{"header":{"parameterUnit":"m.s-1","parameterCategory":1,"la1":30.2991,"la2":30.254,"lo1":-89.0895,"lo2":-89.0444,"dy":0.0017,"dx":0.0017,"nx":28,"ny":28,"refTime":"2024-03-23T03:00:00:Z","depth":0,"parameterNumber":2,"parameterNumberName":"U-component_of_WINDS"},"data":[0,0,0,0,0,0,0,0,0,0,0,0,0,0,0,0,0,0,0,0,0,0,0,0,0,0,0,0,0,0,0,0,0,0,0,0,0,0,0,0,0,0,0,0,0,0,0,0,0,0,0,0,0,0,0,0,0,0,3.0478,3.0479,0,3.0492,3.0492,3.0492,3.0486,3.0486,3.0485,3.0485,3.05,3.0501,3.0501,0,0,0,0,0,0,0,0,0,0,0,0,0,3.0448,3.0448,3.0478,3.0479,3.0479,3.0492,3.0492,3.0493,3.0486,3.0486,3.0485,3.0485,3.05,3.0501,3.0501,0,0,0,0,0,0,0,0,0,0,0,0,0,3.0461,3.0449,3.0478,3.0477,3.0477,3.0492,3.0492,3.0493,3.0486,3.0486,3.0485,3.0485,3.0499,3.0501,3.0502,3.0519,0,0,3.0505,3.0505,0,0,0,0,0,0,0,0,3.046,3.0462,3.0477,3.0477,3.0477,3.0487,3.0487,3.0501,3.0486,3.0483,3.0485,3.0484,3.0496,3.0497,3.0501,3.0519,3.052,3.0505,3.0506,3.0506,3.0506,0,0,0,0,0,0,0,3.046,3.0462,3.0484,3.0477,3.0478,3.0476,3.0478,3.049,3.0492,3.0483,3.0483,3.0484,3.0496,3.05,3.0501,3.052,3.0505,3.0506,3.0507,3.0507,3.0554,3.0554,0,0,0,0,0,0,3.0459,3.0461,3.0483,3.0484,3.0467,3.0477,3.0479,3.0484,3.0492,3.0493,3.0485,3.0484,3.0499,3.05,3.0502,3.0523,3.0506,3.0507,3.0508,3.0553,3.0554,3.0554,0,0,0,0,0,0,3.0458,3.0461,3.0483,3.0473,3.0475,3.0478,3.0485,3.0485,3.0489,3.0493,3.0494,3.0488,3.0498,3.05,3.0515,3.0523,3.0508,3.0509,3.0552,3.0553,3.0554,3.0564,0,0,0,0,0,0,3.0457,3.046,3.0467,3.0473,3.0476,3.0495,3.0485,3.0486,3.0491,3.049,3.0497,3.0498,3.0498,3.0513,3.0516,3.0524,3.0509,3.0552,3.0553,3.0554,3.0563,3.0565,3.0567,0,0,0,0,0,3.0456,3.0469,3.0467,3.047,3.0484,3.0496,3.0497,3.0497,3.0491,3.0498,3.0501,3.0497,3.0522,3.0515,3.0517,3.0527,3.0551,3.0552,3.0554,3.0562,3.0565,3.0567,0,0,0,0,0,0,3.0465,3.047,3.0468,3.0483,3.0489,3.0494,3.0503,3.05,3.0508,3.0507,3.0507,3.0508,3.0523,3.0526,3.0518,3.0544,3.0536,3.0538,3.0541,3.0544,3.0546,3.0545,3.051,0,0,0,0,0,3.0468,3.0477,3.0481,3.0495,3.0498,3.05,3.0505,3.0504,3.051,3.0513,3.0517,3.0523,3.0532,3.0538,3.0547,3.0564,3.0565,3.0571,3.0573,3.0575,3.0577,3.0586,3.0589,3.0559,3.0559,3.0559,0,0,3.0476,3.048,3.0486,3.0497,3.0501,3.051,3.0502,3.0512,3.0519,3.0514,3.0528,3.0531,3.0538,3.0554,3.0561,3.0557,3.0586,3.0577,3.0578,3.0579,3.0588,3.0591,3.0594,3.056,3.0559,3.0559,0,0,3.0495,3.0499,3.0511,3.0515,3.0522,3.0523,3.0526,3.0531,3.0533,3.0547,3.0543,3.0552,3.0567,3.0573,3.0577,3.0598,3.0595,3.0601,3.0612,3.0621,3.0624,3.0626,3.0634,3.0636,3.0603,3.0603,3.0603,0,3.0505,3.0518,3.0517,3.0528,3.0533,3.0528,3.054,3.0545,3.0554,3.0558,3.0553,3.0572,3.0577,3.0594,3.0599,3.0603,3.0606,3.06,3.0623,3.0625,3.0627,3.0635,3.0638,3.0603,3.0603,3.0603,3.0603,0,3.0529,3.0539,3.0547,3.0556,3.0562,3.0573,3.0574,3.058,3.0579,3.0581,3.0595,3.06,3.0609,3.0613,3.0612,3.063,3.0628,3.0623,3.0615,3.0631,3.0638,3.0641,3.0604,3.0604,3.0604,3.0604,0,0,3.0555,3.0562,3.0566,3.0569,3.0576,3.0584,3.0595,3.0604,3.0609,3.0615,3.0625,3.0638,3.0634,3.0639,3.0639,3.0647,3.0664,3.0641,3.0642,3.0646,3.0684,3.0688,3.0691,3.0662,3.0662,3.0663,3.0683,0,3.0575,3.0594,3.0593,3.0611,3.062,3.0616,3.0625,3.0631,3.0633,3.0641,3.0643,3.0652,3.0646,3.0649,3.0657,3.066,3.0671,3.0658,3.0671,3.0671,3.067,3.0695,3.0699,3.0718,3.0686,3.0687,3.0687,0,3.0602,3.0608,3.0627,3.0632,3.0636,3.0644,3.0652,3.066,3.0666,3.0667,3.0672,3.0671,3.0682,3.0673,3.069,3.0681,3.0686,3.0688,3.0689,3.069,3.0681,3.0697,3.0724,3.0728,3.0691,3.0691,3.0691,0,3.0619,3.0633,3.0646,3.0649,3.0655,3.0661,3.0664,3.067,3.0675,3.0682,3.0686,3.0694,3.0699,3.0706,3.0707,3.07,3.0723,3.0714,3.0725,3.0725,3.073,3.073,3.0759,3.0732,3.0732,3.0732,3.0732,0,3.0642,3.0654,3.0654,3.0662,3.0675,3.0674,3.0687,3.0689,3.0694,3.0702,3.0699,3.0707,3.0707,3.0716,3.0717,3.073,3.0732,3.0734,3.0734,3.0734,3.0734,3.0738,3.0737,3.0733,3.0733,3.0733,3.0733,0,3.0665,3.0665,3.0679,3.0683,3.0684,3.0694,3.0698,3.0706,3.0707,3.0718,3.072,3.0722,3.0732,3.0733,3.0745,3.0746,3.0762,3.076,3.076,3.076,3.077,3.077,3.0803,3.0808,3.0778,3.0778,3.0778,0,3.068,3.0689,3.0694,3.0699,3.0702,3.0711,3.0716,3.0715,3.0721,3.0728,3.0735,3.0744,3.0752,3.0768,3.0771,3.078,3.0779,3.079,3.078,3.078,3.0779,3.0779,3.078,3.0792,3.0792,3.0793,3.0793,0,3.0707,3.0707,3.0714,3.0721,3.0727,3.0733,3.0739,3.0744,3.0743,3.075,3.076,3.0765,3.0777,3.0786,3.0795,3.0799,3.0796,3.0796,3.0799,3.08,3.0799,3.08,3.0766,3.0795,3.0795,3.0795,3.0795,3.0794,3.0727,3.0735,3.0739,3.0747,3.0751,3.0756,3.0764,3.0765,3.0773,3.0782,3.0781,3.0792,3.0797,3.0809,3.0813,3.0821,3.0818,3.0822,3.0823,3.0825,3.0826,3.0797,3.0823,3.0823,3.0823,3.0823,3.0823,0,3.0755,3.0757,3.0765,3.0772,3.0779,3.0774,3.078,3.0786,3.0795,3.08,3.0807,3.0819,3.0828,3.0831,3.084,3.0846,3.0845,3.0849,3.0849,3.085,3.0828,3.0825,3.0849,3.0849,3.0849,3.0849,3.0849,3.0849,3.077,3.0783,3.0782,3.0797,3.0799,3.0809,3.0813,3.0818,3.0822,3.0834,3.0841,3.0843,3.0847,3.0856,3.0865,3.0865,3.0869,3.0873,3.0874,3.0854,3.0851,3.0849,3.0846,3.0874,3.0874,3.0894,3.0895,3.0895]},{"header":{"parameterUnit":"m.s-1","parameterCategory":1,"la1":30.2991,"la2":30.254,"lo1":-89.0895,"lo2":-89.0444,"dy":0.0017,"dx":0.0017,"nx":28,"ny":28,"refTime":"2024-03-23T03:00:00:Z","depth":0,"parameterNumber":3,"parameterNumberName":"V-component_of_WINDS"},"data":[0,0,0,0,0,0,0,0,0,0,0,0,0,0,0,0,0,0,0,0,0,0,0,0,0,0,0,0,0,0,0,0,0,0,0,0,0,0,0,0,0,0,0,0,0,0,0,0,0,0,0,0,0,0,0,0,0,0,-2.8954,-2.8955,0,-2.8978,-2.8979,-2.8979,-2.8982,-2.8982,-2.8982,-2.8982,-2.9008,-2.9009,-2.901,0,0,0,0,0,0,0,0,0,0,0,0,0,-2.8913,-2.8914,-2.8954,-2.8955,-2.8955,-2.8978,-2.8979,-2.8979,-2.8982,-2.8982,-2.8982,-2.8981,-2.9008,-2.9009,-2.901,0,0,0,0,0,0,0,0,0,0,0,0,0,-2.8934,-2.8914,-2.8954,-2.8959,-2.896,-2.8978,-2.8979,-2.8979,-2.8982,-2.8982,-2.8982,-2.8981,-2.9007,-2.9009,-2.901,-2.9026,0,0,-2.9014,-2.9015,0,0,0,0,0,0,0,0,-2.8932,-2.8935,-2.8958,-2.8959,-2.896,-2.8977,-2.8974,-2.8995,-2.8982,-2.8974,-2.8982,-2.8981,-2.8998,-2.9,-2.9006,-2.9027,-2.9028,-2.9014,-2.9015,-2.9016,-2.9016,0,0,0,0,0,0,0,-2.8931,-2.8934,-2.8964,-2.8959,-2.896,-2.8961,-2.8964,-2.8978,-2.8988,-2.8975,-2.8975,-2.8978,-2.8999,-2.9004,-2.9006,-2.9028,-2.9014,-2.9016,-2.9017,-2.9017,-2.9064,-2.9064,0,0,0,0,0,0,-2.8928,-2.8933,-2.8963,-2.8965,-2.8945,-2.8962,-2.8965,-2.8972,-2.8988,-2.899,-2.8978,-2.8978,-2.9002,-2.9005,-2.9007,-2.9026,-2.9016,-2.9017,-2.9018,-2.9063,-2.9064,-2.9064,0,0,0,0,0,0,-2.8927,-2.8931,-2.8962,-2.8949,-2.8953,-2.8963,-2.8971,-2.8973,-2.8978,-2.899,-2.8992,-2.8982,-2.9002,-2.9005,-2.9021,-2.9027,-2.9018,-2.9019,-2.9063,-2.9063,-2.9064,-2.9065,0,0,0,0,0,0,-2.8926,-2.8931,-2.8936,-2.8949,-2.8954,-2.8975,-2.8971,-2.8973,-2.898,-2.898,-2.8994,-2.8996,-2.9002,-2.9019,-2.9022,-2.9029,-2.902,-2.9062,-2.9063,-2.9064,-2.9064,-2.9065,-2.9066,0,0,0,0,0,-2.8925,-2.8936,-2.8937,-2.894,-2.8961,-2.8975,-2.8978,-2.8984,-2.8981,-2.8987,-2.8994,-2.8996,-2.9026,-2.902,-2.9024,-2.9032,-2.9062,-2.9063,-2.9064,-2.9064,-2.9065,-2.9066,0,0,0,0,0,0,-2.8925,-2.8938,-2.8939,-2.8954,-2.8964,-2.8976,-2.8984,-2.8985,-2.8996,-2.8996,-2.9003,-2.9006,-2.9021,-2.9028,-2.9022,-2.9047,-2.9044,-2.9045,-2.9042,-2.9044,-2.9045,-2.9043,-2.9021,0,0,0,0,0,-2.8926,-2.8937,-2.8948,-2.8961,-2.8965,-2.8973,-2.898,-2.8984,-2.8994,-2.8998,-2.9007,-2.9017,-2.9029,-2.9037,-2.9048,-2.9065,-2.9068,-2.9072,-2.9073,-2.9074,-2.9075,-2.9084,-2.9086,-2.9067,-2.9067,-2.9067,0,0,-2.893,-2.8939,-2.8945,-2.8961,-2.8968,-2.8979,-2.8977,-2.8989,-2.8997,-2.9,-2.9015,-2.9022,-2.9034,-2.905,-2.9058,-2.9056,-2.9081,-2.9075,-2.9075,-2.9077,-2.9086,-2.9087,-2.9089,-2.9068,-2.9068,-2.9067,0,0,-2.8943,-2.895,-2.8962,-2.8969,-2.898,-2.8986,-2.8988,-2.9,-2.9005,-2.902,-2.9022,-2.9033,-2.9053,-2.9061,-2.9068,-2.9084,-2.9085,-2.9087,-2.9093,-2.9102,-2.9103,-2.9104,-2.911,-2.9112,-2.9089,-2.9089,-2.9089,0,-2.8947,-2.8963,-2.8967,-2.8979,-2.8986,-2.8988,-2.9,-2.9007,-2.9022,-2.9027,-2.9025,-2.905,-2.9058,-2.9077,-2.908,-2.9086,-2.9089,-2.9086,-2.9102,-2.9104,-2.9105,-2.911,-2.9112,-2.9089,-2.9089,-2.9089,-2.9089,0,-2.8966,-2.8977,-2.8985,-2.8999,-2.9006,-2.9018,-2.9025,-2.9032,-2.9035,-2.9041,-2.9056,-2.9066,-2.908,-2.9084,-2.9087,-2.9103,-2.9101,-2.9101,-2.9097,-2.9107,-2.9112,-2.9114,-2.9089,-2.9089,-2.9089,-2.9089,0,0,-2.8981,-2.8996,-2.8999,-2.9004,-2.9017,-2.9026,-2.9037,-2.905,-2.9056,-2.9066,-2.9076,-2.9093,-2.9092,-2.91,-2.9104,-2.9112,-2.9123,-2.911,-2.9111,-2.9112,-2.9141,-2.9141,-2.9144,-2.9124,-2.9125,-2.9125,-2.914,0,-2.8995,-2.9015,-2.9019,-2.9037,-2.9047,-2.9049,-2.9059,-2.9068,-2.9074,-2.9084,-2.909,-2.9102,-2.91,-2.9105,-2.9113,-2.912,-2.9129,-2.9119,-2.9134,-2.9135,-2.9131,-2.9146,-2.9147,-2.9161,-2.9142,-2.9142,-2.9142,0,-2.9015,-2.9024,-2.9042,-2.9052,-2.9057,-2.9066,-2.9077,-2.9087,-2.9097,-2.91,-2.9109,-2.9112,-2.9124,-2.912,-2.9138,-2.9131,-2.9137,-2.9142,-2.9143,-2.9144,-2.9139,-2.9149,-2.9165,-2.9167,-2.9146,-2.9145,-2.9145,0,-2.9023,-2.904,-2.9053,-2.9058,-2.9071,-2.9077,-2.9083,-2.9092,-2.9099,-2.911,-2.9114,-2.9126,-2.9133,-2.9142,-2.9148,-2.9145,-2.9166,-2.9162,-2.9169,-2.9169,-2.9174,-2.9174,-2.9192,-2.9178,-2.9178,-2.9178,-2.9178,0,-2.9039,-2.905,-2.9057,-2.9066,-2.9078,-2.9083,-2.9095,-2.9101,-2.911,-2.9119,-2.9122,-2.9131,-2.9139,-2.9149,-2.9154,-2.9168,-2.9171,-2.9175,-2.9176,-2.9174,-2.9174,-2.9179,-2.9178,-2.9178,-2.9178,-2.9178,-2.9178,0,-2.9051,-2.9056,-2.9071,-2.9081,-2.9084,-2.9092,-2.9101,-2.911,-2.9115,-2.9127,-2.913,-2.9139,-2.9151,-2.9158,-2.9173,-2.9177,-2.9192,-2.9193,-2.9188,-2.9189,-2.9196,-2.9196,-2.9218,-2.9222,-2.9205,-2.9205,-2.9205,0,-2.9061,-2.907,-2.908,-2.9086,-2.9092,-2.9102,-2.9108,-2.9113,-2.9121,-2.9132,-2.9139,-2.9151,-2.9161,-2.918,-2.9188,-2.92,-2.9202,-2.9209,-2.9203,-2.9202,-2.9202,-2.9201,-2.9202,-2.921,-2.921,-2.921,-2.921,0,-2.9079,-2.908,-2.909,-2.91,-2.9107,-2.9116,-2.9124,-2.9129,-2.9135,-2.9143,-2.9155,-2.9163,-2.9178,-2.919,-2.9202,-2.9209,-2.9211,-2.9211,-2.9214,-2.9213,-2.921,-2.9212,-2.9191,-2.9211,-2.9211,-2.9211,-2.9211,-2.9211,-2.909,-2.9098,-2.9106,-2.9116,-2.9122,-2.913,-2.9138,-2.9143,-2.9153,-2.9165,-2.9168,-2.918,-2.919,-2.9206,-2.9213,-2.9223,-2.9222,-2.9226,-2.9227,-2.9227,-2.9228,-2.9208,-2.9226,-2.9226,-2.9226,-2.9226,-2.9225,0,-2.9108,-2.9113,-2.9122,-2.9133,-2.9141,-2.9141,-2.915,-2.9157,-2.9167,-2.9175,-2.9185,-2.9198,-2.921,-2.9218,-2.923,-2.9236,-2.9237,-2.9239,-2.9239,-2.9241,-2.9228,-2.9225,-2.9238,-2.9238,-2.9238,-2.9238,-2.9238,-2.9238,-2.9118,-2.9131,-2.9133,-2.9149,-2.9154,-2.9166,-2.9171,-2.9178,-2.9184,-2.9199,-2.9208,-2.9213,-2.9221,-2.9233,-2.9244,-2.9246,-2.925,-2.9252,-2.9255,-2.9243,-2.9242,-2.924,-2.9237,-2.9253,-2.9253,-2.9266,-2.9266,-2.9267]}]]